Location: Waldport
(44.4270°N, 124.0680°W)
Time: 06:14:26
(UTC-07:00)

Meteor 1-26 Rocket - Visible Passes

Search period start: 27 March 2015 00:00
Search period end: 06 April 2015 00:00
Orbit: 825 x 911 km, 81.3° (Epoch: 26 March)

Date Brightness Start Highest point End Pass type
(mag) Time Alt. Az. Time Alt. Az. Time Alt. Az.
27 Mar 6.9 00:10:26 11° NE 00:10:26 11° NE 00:10:42 10° NE visible
27 Mar 6.5 01:52:48 21° N 01:52:48 21° N 01:54:42 10° N visible
28 Mar 6.8 00:03:29 12° NE 00:03:29 12° NE 00:03:53 10° NNE visible
28 Mar 6.5 01:45:50 21° N 01:45:50 21° N 01:47:51 10° N visible
28 Mar 6.8 23:56:31 12° NE 23:56:31 12° NE 23:57:04 10° NNE visible
29 Mar 6.4 01:38:53 22° N 01:38:53 22° N 01:41:00 10° N visible
29 Mar 6.7 23:49:32 13° NE 23:49:32 13° NE 23:50:15 10° NNE visible
30 Mar 6.4 01:31:54 23° N 01:31:54 23° N 01:34:08 10° N visible
30 Mar 6.6 23:42:32 14° NE 23:42:32 14° NE 23:43:25 10° NNE visible
31 Mar 6.3 01:24:54 24° NNW 01:24:54 24° NNW 01:27:17 10° N visible
31 Mar 6.6 23:35:32 14° NE 23:35:32 14° NE 23:36:36 10° NNE visible
01 Apr 6.3 01:17:53 25° NNW 01:17:53 25° NNW 01:20:26 10° N visible
01 Apr 6.5 23:28:30 15° NE 23:28:30 15° NE 23:29:46 10° NNE visible
02 Apr 6.2 01:10:52 26° NNW 01:10:52 26° NNW 01:13:35 10° N visible
02 Apr 6.4 23:21:28 16° NE 23:21:28 16° NE 23:22:57 10° NNE visible
03 Apr 6.1 01:03:49 27° NNW 01:03:49 27° NNW 01:06:43 10° N visible
03 Apr 6.3 23:14:24 18° NE 23:14:24 18° NE 23:16:08 10° NNE visible
04 Apr 6.0 00:56:45 29° NNW 00:56:45 29° NNW 00:59:52 10° N visible
04 Apr 6.2 23:07:19 19° NE 23:07:19 19° NE 23:09:18 10° NNE visible
05 Apr 5.9 00:49:40 30° NNW 00:49:40 30° NNW 00:53:00 10° N visible
05 Apr 6.1 23:00:13 20° NE 23:00:13 20° NE 23:02:28 10° NNE visible
